Time,TemperatureF,DewpointF,PressureIn,WindDirection,WindDirectionDegrees,WindSpeedMPH,WindSpeedGustMPH,Humidity,HourlyPrecipIn,Conditions,Clouds,dailyrainin,SoftwareType,DateUTC
2013-02-20 00:02:00,16.0,12.0,29.95,NNW,338,2.0,8.0,85,0.00,,,0.15,,2013-02-20 05:02:00,
2013-02-20 00:12:00,16.0,12.0,29.95,NNW,338,2.0,8.0,85,0.00,,,0.15,,2013-02-20 05:12:00,
2013-02-20 00:22:00,16.0,12.0,29.96,NNW,329,0.0,8.0,85,0.00,,,0.15,,2013-02-20 05:22:00,
2013-02-20 00:32:00,15.0,12.0,29.96,North,5,3.0,5.0,86,0.00,,,0.15,,2013-02-20 05:32:00,
2013-02-20 00:43:00,15.0,12.0,29.96,North,5,3.0,5.0,86,0.00,,,0.15,,2013-02-20 05:43:00,
2013-02-20 00:52:00,15.0,12.0,29.96,NNW,346,2.0,4.0,87,0.00,,,0.15,,2013-02-20 05:52:00,
2013-02-20 01:02:00,15.0,12.0,29.97,WNW,298,1.0,7.0,87,0.00,,,0.10,,2013-02-20 06:02:00,
2013-02-20 01:11:00,15.0,12.0,29.97,WNW,298,1.0,7.0,87,0.00,,,0.10,,2013-02-20 06:11:00,
2013-02-20 01:22:00,15.0,12.0,29.98,NW,321,0.0,4.0,87,0.00,,,0.10,,2013-02-20 06:22:00,
2013-02-20 01:32:00,15.0,12.0,29.98,NE,41,1.0,6.0,87,0.00,,,0.10,,2013-02-20 06:32:00,
2013-02-20 01:42:00,15.0,12.0,29.98,NE,41,1.0,6.0,87,0.00,,,0.10,,2013-02-20 06:42:00,
2013-02-20 01:52:00,15.0,12.0,29.98,NW,311,1.0,6.0,86,0.00,,,0.10,,2013-02-20 06:52:00,
2013-02-20 02:01:00,15.0,11.0,29.99,WNW,298,2.0,8.0,85,0.00,,,0.05,,2013-02-20 07:01:00,
2013-02-20 02:11:00,15.0,11.0,29.99,WNW,298,2.0,8.0,85,0.00,,,0.05,,2013-02-20 07:11:00,
2013-02-20 02:21:00,14.0,10.0,29.99,NW,304,2.0,6.0,85,0.00,,,0.05,,2013-02-20 07:21:00,
2013-02-20 02:32:00,15.0,11.0,30.00,NW,305,3.0,8.0,84,0.00,,,0.05,,2013-02-20 07:32:00,
2013-02-20 02:42:00,15.0,11.0,30.00,NW,305,3.0,8.0,84,0.00,,,0.05,,2013-02-20 07:42:00,
2013-02-20 02:51:00,15.0,11.0,30.00,West,278,1.0,8.0,83,0.00,,,0.05,,2013-02-20 07:51:00,
2013-02-20 03:05:00,15.0,11.0,30.01,NW,311,2.0,7.0,84,0.00,,,0.03,,2013-02-20 08:05:00,
2013-02-20 03:11:00,15.0,11.0,30.01,NW,311,2.0,7.0,84,0.00,,,0.03,,2013-02-20 08:11:00,
2013-02-20 03:21:00,15.0,11.0,30.01,NNW,342,1.0,5.0,85,0.00,,,0.03,,2013-02-20 08:21:00,
2013-02-20 03:31:00,14.0,10.0,30.02,NW,312,0.0,3.0,85,0.00,,,0.03,,2013-02-20 08:31:00,
2013-02-20 03:42:00,14.0,10.0,30.02,NW,312,0.0,3.0,85,0.00,,,0.03,,2013-02-20 08:42:00,
2013-02-20 03:52:00,15.0,12.0,30.02,WNW,287,1.0,4.0,86,0.00,,,0.03,,2013-02-20 08:52:00,
2013-02-20 04:01:00,15.0,12.0,30.02,WSW,250,2.0,5.0,86,0.00,,,0.01,,2013-02-20 09:01:00,
2013-02-20 04:11:00,15.0,12.0,30.02,WSW,250,2.0,5.0,86,0.00,,,0.01,,2013-02-20 09:11:00,
2013-02-20 04:21:00,15.0,11.0,30.03,NW,325,2.0,5.0,85,0.00,,,0.01,,2013-02-20 09:21:00,
2013-02-20 04:32:00,15.0,11.0,30.04,NW,321,0.0,3.0,84,0.00,,,0.01,,2013-02-20 09:32:00,
2013-02-20 04:42:00,15.0,11.0,30.04,NW,321,0.0,3.0,84,0.00,,,0.01,,2013-02-20 09:42:00,
2013-02-20 04:52:00,15.0,11.0,30.05,NNE,24,1.0,4.0,84,0.00,,,0.01,,2013-02-20 09:52:00,
2013-02-20 05:01:00,15.0,11.0,30.05,North,355,0.0,5.0,84,0.00,,,0.00,,2013-02-20 10:01:00,
2013-02-20 05:12:00,15.0,11.0,30.05,North,355,0.0,5.0,84,0.00,,,0.00,,2013-02-20 10:12:00,
2013-02-20 05:22:00,15.0,11.0,30.06,NNW,348,3.0,8.0,84,0.00,,,0.00,,2013-02-20 10:22:00,
2013-02-20 05:32:00,15.0,11.0,30.06,NNE,30,0.0,10.0,82,0.00,,,0.00,,2013-02-20 10:32:00,
2013-02-20 05:42:00,15.0,11.0,30.06,NNE,30,0.0,10.0,82,0.00,,,0.00,,2013-02-20 10:42:00,
2013-02-20 05:52:00,15.0,11.0,30.06,NE,49,4.0,6.0,82,0.00,,,0.00,,2013-02-20 10:52:00,
2013-02-20 06:02:00,15.0,10.0,30.07,NNW,338,3.0,7.0,81,0.00,,,0.00,,2013-02-20 11:02:00,
2013-02-20 06:11:00,15.0,10.0,30.08,NNW,341,1.0,9.0,80,0.00,,,0.00,,2013-02-20 11:11:00,
2013-02-20 06:21:00,15.0,10.0,30.08,NNW,341,1.0,9.0,80,0.00,,,0.00,,2013-02-20 11:21:00,
2013-02-20 06:32:00,16.0,11.0,30.08,NW,322,4.0,11.0,81,0.00,,,0.00,,2013-02-20 11:32:00,
2013-02-20 06:42:00,16.0,11.0,30.08,NW,322,4.0,11.0,81,0.00,,,0.00,,2013-02-20 11:42:00,
2013-02-20 06:52:00,15.0,11.0,30.09,NNE,13,1.0,8.0,82,0.00,,,0.00,,2013-02-20 11:52:00,
2013-02-20 07:02:00,16.0,11.0,30.09,NW,311,4.0,10.0,82,0.00,,,0.00,,2013-02-20 12:02:00,
2013-02-20 07:12:00,16.0,11.0,30.09,NW,311,4.0,10.0,82,0.00,,,0.00,,2013-02-20 12:12:00,
2013-02-20 07:21:00,16.0,11.0,30.09,NW,306,2.0,6.0,82,0.00,,,0.00,,2013-02-20 12:21:00,
2013-02-20 07:32:00,16.0,11.0,30.10,NW,312,3.0,8.0,82,0.00,,,0.00,,2013-02-20 12:32:00,
2013-02-20 07:42:00,16.0,11.0,30.10,NW,312,3.0,8.0,82,0.00,,,0.00,,2013-02-20 12:42:00,
2013-02-20 07:53:00,16.0,11.0,30.11,NNW,330,3.0,9.0,81,0.00,,,0.00,,2013-02-20 12:53:00,
2013-02-20 08:01:00,16.0,11.0,30.11,North,355,3.0,7.0,80,0.00,,,0.00,,2013-02-20 13:01:00,
2013-02-20 08:11:00,16.0,11.0,30.11,North,355,3.0,7.0,80,0.00,,,0.00,,2013-02-20 13:11:00,
2013-02-20 08:22:00,16.0,11.0,30.12,North,351,1.0,8.0,79,0.00,,,0.00,,2013-02-20 13:22:00,
2013-02-20 08:32:00,16.0,11.0,30.12,NW,323,2.0,10.0,79,0.00,,,0.00,,2013-02-20 13:32:00,
2013-02-20 08:42:00,16.0,11.0,30.12,NW,323,2.0,10.0,79,0.00,,,0.00,,2013-02-20 13:42:00,
2013-02-20 08:52:00,16.0,11.0,30.12,NW,320,4.0,14.0,79,0.00,,,0.00,,2013-02-20 13:52:00,
2013-02-20 09:01:00,16.0,11.0,30.13,NNE,33,0.0,13.0,79,0.00,,,0.00,,2013-02-20 14:01:00,
2013-02-20 09:11:00,16.0,11.0,30.13,NNE,33,0.0,13.0,79,0.00,,,0.00,,2013-02-20 14:11:00,
2013-02-20 09:22:00,16.0,11.0,30.14,North,355,2.0,11.0,79,0.00,,,0.00,,2013-02-20 14:22:00,
2013-02-20 09:32:00,16.0,11.0,30.14,NNW,346,3.0,8.0,79,0.00,,,0.00,,2013-02-20 14:32:00,
2013-02-20 09:42:00,16.0,11.0,30.14,NNW,346,3.0,8.0,79,0.00,,,0.00,,2013-02-20 14:42:00,
2013-02-20 09:52:00,17.0,12.0,30.14,NNE,14,2.0,10.0,80,0.00,,,0.00,,2013-02-20 14:52:00,
2013-02-20 10:02:00,17.0,12.0,30.14,ENE,65,2.0,11.0,79,0.00,,,0.00,,2013-02-20 15:02:00,
2013-02-20 10:11:00,17.0,12.0,30.14,ENE,65,2.0,11.0,79,0.00,,,0.00,,2013-02-20 15:11:00,
2013-02-20 10:22:00,17.0,12.0,30.14,NNE,25,2.0,15.0,79,0.00,,,0.00,,2013-02-20 15:22:00,
2013-02-20 10:32:00,17.0,11.0,30.15,NNW,327,2.0,12.0,78,0.00,,,0.00,,2013-02-20 15:32:00,
2013-02-20 10:42:00,17.0,11.0,30.15,NNW,327,2.0,12.0,78,0.00,,,0.00,,2013-02-20 15:42:00,
2013-02-20 10:52:00,17.0,11.0,30.15,North,360,5.0,14.0,78,0.00,,,0.00,,2013-02-20 15:52:00,
2013-02-20 11:01:00,18.0,12.0,30.16,NE,34,4.0,10.0,77,0.00,,,0.00,,2013-02-20 16:01:00,
2013-02-20 11:12:00,18.0,12.0,30.16,NE,34,4.0,10.0,77,0.00,,,0.00,,2013-02-20 16:12:00,
2013-02-20 11:21:00,18.0,12.0,30.16,NE,54,4.0,10.0,78,0.00,,,0.00,,2013-02-20 16:21:00,
2013-02-20 11:32:00,18.0,13.0,30.16,North,355,2.0,15.0,79,0.00,,,0.00,,2013-02-20 16:32:00,
2013-02-20 11:42:00,18.0,13.0,30.16,North,355,2.0,15.0,79,0.00,,,0.00,,2013-02-20 16:42:00,
2013-02-20 11:52:00,18.0,13.0,30.16,NE,50,4.0,8.0,79,0.00,,,0.00,,2013-02-20 16:52:00,
2013-02-20 12:01:00,19.0,13.0,30.17,NE,55,4.0,10.0,78,0.00,,,0.00,,2013-02-20 17:01:00,
2013-02-20 12:11:00,19.0,13.0,30.16,North,9,7.0,12.0,78,0.00,,,0.00,,2013-02-20 17:11:00,
2013-02-20 12:21:00,19.0,13.0,30.16,North,9,7.0,12.0,78,0.00,,,0.00,,2013-02-20 17:21:00,
2013-02-20 12:32:00,19.0,13.0,30.17,East,86,3.0,11.0,78,0.00,,,0.00,,2013-02-20 17:32:00,
2013-02-20 12:42:00,19.0,13.0,30.17,East,86,3.0,11.0,78,0.00,,,0.00,,2013-02-20 17:42:00,
2013-02-20 12:52:00,20.0,14.0,30.17,NNE,26,2.0,14.0,76,0.00,,,0.00,,2013-02-20 17:52:00,
2013-02-20 13:02:00,20.0,14.0,30.17,East,89,3.0,10.0,77,0.00,,,0.00,,2013-02-20 18:02:00,
2013-02-20 13:11:00,20.0,14.0,30.17,East,89,3.0,10.0,77,0.00,,,0.00,,2013-02-20 18:11:00,
2013-02-20 13:21:00,20.0,14.0,30.17,NE,34,8.0,11.0,76,0.00,,,0.00,,2013-02-20 18:21:00,
2013-02-20 13:32:00,20.0,14.0,30.17,North,360,6.0,11.0,76,0.00,,,0.00,,2013-02-20 18:32:00,
2013-02-20 13:42:00,20.0,14.0,30.17,North,360,6.0,11.0,76,0.00,,,0.00,,2013-02-20 18:42:00,
2013-02-20 13:52:00,21.0,14.0,30.18,WNW,302,5.0,10.0,74,0.00,,,0.00,,2013-02-20 18:52:00,
2013-02-20 14:01:00,21.0,14.0,30.18,North,355,6.0,12.0,73,0.00,,,0.00,,2013-02-20 19:01:00,
2013-02-20 14:11:00,21.0,14.0,30.18,North,355,6.0,12.0,73,0.00,,,0.00,,2013-02-20 19:11:00,
2013-02-20 14:21:00,21.0,14.0,30.18,NE,37,4.0,12.0,73,0.00,,,0.00,,2013-02-20 19:21:00,
2013-02-20 14:31:00,21.0,14.0,30.18,NNW,346,5.0,14.0,73,0.00,,,0.00,,2013-02-20 19:31:00,
2013-02-20 14:41:00,21.0,14.0,30.18,NNW,346,5.0,14.0,73,0.00,,,0.00,,2013-02-20 19:41:00,
2013-02-20 14:52:00,21.0,14.0,30.18,East,97,0.0,12.0,74,0.00,,,0.00,,2013-02-20 19:52:00,
2013-02-20 15:01:00,22.0,16.0,30.18,NE,40,2.0,10.0,76,0.00,,,0.00,,2013-02-20 20:01:00,
2013-02-20 15:11:00,22.0,15.0,30.18,WNW,286,2.0,9.0,75,0.00,,,0.00,,2013-02-20 20:11:00,
2013-02-20 15:21:00,22.0,15.0,30.18,WNW,286,2.0,9.0,75,0.00,,,0.00,,2013-02-20 20:21:00,
2013-02-20 15:31:00,22.0,15.0,30.19,NE,53,4.0,11.0,75,0.00,,,0.00,,2013-02-20 20:31:00,
2013-02-20 15:41:00,22.0,15.0,30.20,NNW,327,3.0,9.0,74,0.00,,,0.00,,2013-02-20 20:41:00,
2013-02-20 15:52:00,22.0,15.0,30.20,NNW,327,3.0,9.0,74,0.00,,,0.00,,2013-02-20 20:52:00,
2013-02-20 16:01:00,22.0,16.0,30.21,North,5,3.0,7.0,77,0.00,,,0.00,,2013-02-20 21:01:00,
2013-02-20 16:11:00,22.0,16.0,30.21,North,5,3.0,7.0,77,0.00,,,0.00,,2013-02-20 21:11:00,
2013-02-20 16:21:00,22.0,16.0,30.22,NW,305,5.0,11.0,76,0.00,,,0.00,,2013-02-20 21:21:00,
2013-02-20 16:31:00,22.0,16.0,30.23,North,360,1.0,4.0,78,0.00,,,0.00,,2013-02-20 21:31:00,
2013-02-20 16:42:00,22.0,16.0,30.23,North,360,1.0,4.0,78,0.00,,,0.00,,2013-02-20 21:42:00,
2013-02-20 16:52:00,22.0,16.0,30.24,NW,326,5.0,9.0,77,0.00,,,0.00,,2013-02-20 21:52:00,
2013-02-20 17:01:00,22.0,16.0,30.24,NNW,346,5.0,9.0,77,0.00,,,0.00,,2013-02-20 22:01:00,
2013-02-20 17:11:00,22.0,16.0,30.24,NNW,346,5.0,9.0,77,0.00,,,0.00,,2013-02-20 22:11:00,
2013-02-20 17:21:00,22.0,16.0,30.25,North,5,1.0,7.0,79,0.00,,,0.00,,2013-02-20 22:21:00,
2013-02-20 17:31:00,21.0,16.0,30.25,NNW,338,5.0,10.0,80,0.00,,,0.00,,2013-02-20 22:31:00,
2013-02-20 17:43:00,21.0,16.0,30.25,NNW,338,5.0,10.0,80,0.00,,,0.00,,2013-02-20 22:43:00,
2013-02-20 17:51:00,21.0,16.0,30.26,WSW,250,2.0,7.0,80,0.00,,,0.00,,2013-02-20 22:51:00,
2013-02-20 18:01:00,21.0,16.0,30.26,North,5,0.0,9.0,79,0.00,,,0.00,,2013-02-20 23:01:00,
2013-02-20 18:12:00,21.0,16.0,30.26,North,5,0.0,9.0,79,0.00,,,0.00,,2013-02-20 23:12:00,
2013-02-20 18:22:00,21.0,16.0,30.26,NNE,31,2.0,7.0,79,0.00,,,0.00,,2013-02-20 23:22:00,
2013-02-20 18:32:00,21.0,16.0,30.26,NW,313,1.0,9.0,79,0.00,,,0.00,,2013-02-20 23:32:00,
2013-02-20 18:42:00,21.0,16.0,30.26,NW,313,1.0,9.0,79,0.00,,,0.00,,2013-02-20 23:42:00,
2013-02-20 18:52:00,21.0,16.0,30.26,North,5,2.0,7.0,80,0.00,,,0.00,,2013-02-20 23:52:00,
2013-02-20 19:03:00,21.0,16.0,30.27,NNE,28,2.0,14.0,81,0.00,,,0.00,,2013-02-21 00:03:00,
2013-02-20 19:11:00,21.0,16.0,30.27,NNE,28,2.0,14.0,81,0.00,,,0.00,,2013-02-21 00:11:00,
2013-02-20 19:22:00,21.0,16.0,30.27,NW,325,1.0,8.0,81,0.00,,,0.00,,2013-02-21 00:22:00,
2013-02-20 19:32:00,21.0,16.0,30.27,NNW,333,1.0,10.0,81,0.00,,,0.00,,2013-02-21 00:32:00,
2013-02-20 19:42:00,21.0,16.0,30.27,NNW,333,1.0,10.0,81,0.00,,,0.00,,2013-02-21 00:42:00,
2013-02-20 19:52:00,21.0,16.0,30.27,East,93,1.0,6.0,82,0.00,,,0.00,,2013-02-21 00:52:00,
2013-02-20 20:01:00,21.0,16.0,30.27,NNE,22,3.0,8.0,82,0.00,,,0.00,,2013-02-21 01:01:00,
2013-02-20 20:11:00,21.0,16.0,30.27,NNE,22,3.0,8.0,82,0.00,,,0.00,,2013-02-21 01:11:00,
2013-02-20 20:21:00,21.0,16.0,30.27,NE,48,3.0,9.0,82,0.00,,,0.00,,2013-02-21 01:21:00,
2013-02-20 20:32:00,21.0,17.0,30.27,North,11,3.0,13.0,83,0.00,,,0.00,,2013-02-21 01:32:00,
2013-02-20 20:42:00,21.0,17.0,30.27,North,11,3.0,13.0,83,0.00,,,0.00,,2013-02-21 01:42:00,
2013-02-20 20:52:00,21.0,16.0,30.27,NW,305,4.0,9.0,82,0.00,,,0.00,,2013-02-21 01:52:00,
2013-02-20 21:02:00,21.0,16.0,30.27,NNE,13,4.0,13.0,81,0.00,,,0.00,,2013-02-21 02:02:00,
2013-02-20 21:11:00,21.0,16.0,30.27,NNE,13,4.0,13.0,81,0.00,,,0.00,,2013-02-21 02:11:00,
2013-02-20 21:21:00,21.0,16.0,30.27,NNE,33,0.0,11.0,81,0.00,,,0.00,,2013-02-21 02:21:00,
2013-02-20 21:32:00,21.0,16.0,30.27,NNE,17,4.0,12.0,81,0.00,,,0.00,,2013-02-21 02:32:00,
2013-02-20 21:42:00,21.0,16.0,30.27,NNE,17,4.0,12.0,81,0.00,,,0.00,,2013-02-21 02:42:00,
2013-02-20 21:51:00,21.0,16.0,30.27,NNE,17,4.0,12.0,81,0.00,,,0.00,,2013-02-21 02:51:00,
2013-02-20 22:02:00,21.0,16.0,30.27,East,100,1.0,13.0,79,0.00,,,0.00,,2013-02-21 03:02:00,
2013-02-20 22:12:00,21.0,16.0,30.27,East,100,1.0,13.0,79,0.00,,,0.00,,2013-02-21 03:12:00,
2013-02-20 22:21:00,21.0,16.0,30.27,East,82,4.0,11.0,79,0.00,,,0.00,,2013-02-21 03:21:00,
2013-02-20 22:32:00,21.0,15.0,30.27,East,90,1.0,7.0,78,0.00,,,0.00,,2013-02-21 03:32:00,
2013-02-20 22:42:00,21.0,15.0,30.27,East,90,1.0,7.0,78,0.00,,,0.00,,2013-02-21 03:42:00,
2013-02-20 22:52:00,21.0,16.0,30.27,ENE,67,4.0,7.0,79,0.00,,,0.00,,2013-02-21 03:52:00,
2013-02-20 23:01:00,21.0,16.0,30.27,ENE,64,8.0,15.0,79,0.00,,,0.00,,2013-02-21 04:01:00,
2013-02-20 23:11:00,21.0,16.0,30.27,ENE,64,8.0,15.0,79,0.00,,,0.00,,2013-02-21 04:11:00,
2013-02-20 23:22:00,21.0,15.0,30.28,ENE,63,2.0,7.0,78,0.00,,,0.00,,2013-02-21 04:22:00,
2013-02-20 23:32:00,21.0,15.0,30.27,West,260,3.0,8.0,78,0.00,,,0.00,,2013-02-21 04:32:00,
2013-02-20 23:42:00,21.0,15.0,30.27,West,260,3.0,8.0,78,0.00,,,0.00,,2013-02-21 04:42:00,
2013-02-20 23:52:00,21.0,15.0,30.27,ESE,105,2.0,11.0,78,0.00,,,0.00,,2013-02-21 04:52:00,